Back to catalog

SL-14 DEB

AlivePO
NORAD 45299·DEBRIS·🇷🇺 Russia

Launched Aug 15, 1991 from Plesetsk Cosmodrome

Loading…

Next Passes (next 24 hours)

TLE

FreshSource: Space-Track

Epoch: Sep 14, 2026, 13:22 UTC

1 45299U 91056AM  26257.55707753  .00000591  00000-0  15638-2 0  9991
2 45299  82.6362 114.8151 0062014 160.9538 199.3922 13.13670779314528

Track SL-14 DEB in real time with AllMySat

Download on the App Store